{"data":{"norad_id":57061,"intl_designator":"2023-088P","name":"STARLINK-5869","alt_names":[],"object_type":"PAYLOAD","status":"ACTIVE","operator":null,"country":"US","launch_date":"2023-06-22","launch_site_code":"AFWTR","launch_vehicle":null,"mission":null,"orbit_class":"UNKNOWN","rcs_meters":null,"size_class":null,"mass_kg":null,"dimensions":null,"purposes":["comms"],"wikipedia_slug":null,"has_3d_model":false,"image_url":null,"decayed_at":null,"tle_current":{"epoch":"2026-05-25T01:23:01.517280Z","epoch_age_seconds":70896,"freshness":"FRESH","line1":"1 57061U 23088P   26145.05765645  .00000862  00000+0  40837-4 0  9997","line2":"2 57061  43.0046  42.6243 0000882 247.6286 112.4473 15.27582441160998","mean_motion":15.27582441,"eccentricity":8.82e-5,"inclination_deg":43.0046,"raan_deg":42.6243,"arg_perigee_deg":247.6286,"mean_anomaly_deg":112.4473,"bstar":4.0837e-5,"rev_number":16099,"period_min":94.266598080123,"perigee_km":482.43663084824,"apogee_km":483.64694278624,"semimajor_km":6861.1787868172,"source":"CELESTRAK","updated_at":"2026-05-25T13:38:18.210733Z"}}}